SQ5AAG-2 Weather Reports


time (UTC)temp
F
wind
direction
speed
knots
gust
knots
rain 1hr
in
rain 24hr
in
rain mn
in
humidity
%
barometer
mb
20260905123528 67 22 0.0 7.8 0.00 0.04 0.00 55 997.5
20260905122527 67 0 6.1 7.8 0.00 0.04 0.00 53 997.5
20260905120135 67 337 9.6 9.6 0.00 0.04 0.00 52 997.4
20260905115634 68 22 2.6 7.8 0.00 0.04 0.00 52 997.4
20260905115134 68 22 0.0 10.4 0.00 0.04 0.00 50 997.4
20260905114634 69 22 0.0 5.2 0.00 0.04 0.00 51 997.5
20260905114135 68 22 0.9 7.8 0.00 0.04 0.00 53 997.5
20260905113633 68 0 5.2 7.8 0.00 0.04 0.00 54 997.2
20260905113133 67 0 7.0 7.0 0.00 0.04 0.00 53 997.2
20260905112633 67 0 7.0 7.0 0.00 0.04 0.00 53 997.3
20260905111632 67 0 7.0 7.0 0.00 0.04 0.00 56 997.2
20260905111132 67 0 4.3 7.8 0.00 0.04 0.00 56 997.1
20260905110631 67 0 7.8 7.8 0.00 0.04 0.00 55 997.3
20260905110136 68 0 2.6 7.0 0.00 0.04 0.00 55 997.3
20260905105631 68 45 7.0 7.0 0.00 0.04 0.00 55 997.2
20260905105131 68 45 1.7 6.1 0.00 0.04 0.00 56 997.0
20260905104630 68 0 2.6 6.1 0.00 0.04 0.00 56 996.9
20260905104130 67 22 6.1 7.0 0.00 0.04 0.00 56 996.9
20260905103630 67 0 2.6 6.1 0.00 0.04 0.00 56 996.8
20260905103129 68 22 6.1 9.6 0.00 0.04 0.00 56 996.8
20260905102629 68 22 9.6 9.6 0.00 0.04 0.00 58 996.7
20260905102129 68 292 1.7 2.6 0.00 0.04 0.00 57 996.8
20260905101628 67 22 2.6 10.4 0.00 0.04 0.00 57 996.8
20260905101129 67 22 10.4 10.4 0.00 0.04 0.00 57 996.6
20260905100628 67 22 7.0 7.0 0.00 0.04 0.00 57 996.9
20260905100128 66 0 6.1 6.1 0.00 0.04 0.00 60 996.8
20260905095629 66 22 0.0 5.2 0.00 0.04 0.00 61 996.8
20260905094628 66 45 6.1 7.0 0.00 0.04 0.00 61 996.8
20260905094126 66 22 6.1 7.0 0.00 0.04 0.00 60 996.8
20260905093126 65 0 6.1 6.1 0.00 0.04 0.00 62 996.7
20260905092626 65 22 0.0 13.9 0.00 0.04 0.00 61 996.7
20260905092125 65 22 8.7 12.2 0.00 0.04 0.00 61 996.7
20260905091625 66 337 12.2 12.2 0.00 0.04 0.00 61 996.5
20260905091125 66 22 5.2 7.0 0.00 0.04 0.00 64 996.4
20260905090624 66 337 7.0 7.8 0.00 0.04 0.00 63 996.5
20260905090124 66 0 6.1 6.1 0.00 0.04 0.00 63 996.4
20260905085624 66 45 0.9 7.8 0.00 0.04 0.00 64 996.3
20260905085124 66 0 7.0 7.8 0.00 0.04 0.00 65 996.4
20260905084623 65 0 6.1 6.1 0.00 0.04 0.00 65 996.4
20260905084123 65 22 0.0 1.7 0.00 0.04 0.00 66 996.3
20260905083623 65 45 0.0 4.3 0.00 0.04 0.00 66 996.3
20260905083122 65 0 4.3 5.2 0.00 0.04 0.00 67 996.3
20260905082622 66 0 0.9 7.8 0.00 0.04 0.00 66 996.1
20260905082122 65 22 0.0 6.1 0.00 0.04 0.00 67 996.1
20260905081623 65 22 0.0 0.0 0.00 0.04 0.00 68 996.1
20260905081121 65 22 0.0 10.4 0.00 0.04 0.00 68 996.3
20260905080621 64 0 10.4 10.4 0.00 0.04 0.00 69 996.2
20260905080121 64 0 10.4 10.4 0.00 0.04 0.00 70 996.3
20260905075620 64 0 8.7 8.7 0.00 0.04 0.00 69 996.2
20260905075120 64 0 1.7 4.3 0.00 0.04 0.00 70 996.0
20260905074620 64 22 4.3 4.3 0.00 0.04 0.00 69 996.0
20260905074124 64 22 0.0 7.8 0.00 0.00 0.00 995.8
20260905074120 64 22 0.0 7.8 0.00 0.04 0.00 70 995.8
20260905073619 64 22 7.8 7.8 0.00 0.04 0.00 71 996.0
20260905073119 64 0 0.0 3.5 0.00 0.04 0.00 72 995.9
20260905072619 64 0 3.5 5.2 0.00 0.04 0.00 72 995.8
20260905072118 63 22 4.3 4.3 0.00 0.04 0.00 73 995.8
20260905071621 63 22 4.3 6.1 0.00 0.04 0.00 72 995.9
20260905071118 63 22 3.5 5.2 0.00 0.04 0.00 72 995.7
20260905070617 63 22 0.9 10.4 0.00 0.04 0.00 73 995.6
20260905070118 63 22 2.6 2.6 0.00 0.04 0.00 73 995.6
20260905065617 63 22 0.0 6.1 0.00 0.04 0.00 73 995.5
20260905065117 63 0 4.3 4.3 0.00 0.04 0.00 72 995.5
20260905064616 63 22 1.7 7.8 0.00 0.04 0.00 73 995.3
20260905064116 63 45 1.7 7.8 0.00 0.04 0.00 73 995.1
20260905064057 62 22 7.8 7.8 0.00 0.04 0.00 73 995.1
20260905063617 62 22 7.8 7.8 0.00 0.04 0.00 73 995.1
20260905063116 62 0 5.2 6.1 0.00 0.04 0.00 73 995.2
20260905062616 62 0 3.5 7.8 0.00 0.04 0.00 73 995.2